KD4UFD Weather Reports


Display with metric or nautical units.
time (UTC)temp
F
wind
direction
speed
MPH
gust
MPH
rain 1hr
in
rain 24hr
in
rain mn
in
humidity
%
barometer
mb
20260903122857 77 137 0.0 0.0 0.00 0.00 0.00 90 1019.1
20260903122352 76 130 0.0 0.0 0.00 0.00 0.00 92 1019.3
20260903121851 75 151 0.0 0.0 0.00 0.00 0.00 95 1019.2
20260903121346 75 124 0.0 0.0 0.00 0.00 0.00 98 1019.4
20260903120842 74 99 0.0 0.0 0.00 0.00 0.00 99 1019.1
20260903120341 73 107 0.0 0.0 0.00 0.00 0.00 99 1019.2
20260903115839 72 20 0.0 0.0 0.00 0.00 0.00 99 1019.2
20260903115334 72 2 0.0 0.0 0.00 0.00 0.00 99 1019.0
20260903114834 71 226 0.0 0.0 0.00 0.00 0.00 99 1018.9
20260903114330 71 234 0.0 0.0 0.00 0.00 0.00 99 1018.9
20260903113825 71 218 0.0 0.0 0.00 0.00 0.00 99 1018.7
20260903113321 71 218 0.0 0.0 0.00 0.00 0.00 99 1018.8
20260903112817 71 218 0.0 0.0 0.00 0.00 0.00 99 1018.6
20260903112313 71 218 0.0 0.0 0.00 0.00 0.00 99 1018.5
20260903111811 71 279 0.0 0.0 0.00 0.00 0.00 99 1018.9
20260903111306 71 279 0.0 0.0 0.00 0.00 0.00 99 1018.6
20260903110802 71 279 0.0 0.0 0.00 0.00 0.00 99 1018.6
20260903110258 71 279 0.0 0.0 0.00 0.00 0.00 99 1018.6
20260903105757 71 279 0.0 0.0 0.00 0.00 0.00 99 1018.5
20260903105252 71 279 0.0 0.0 0.00 0.00 0.00 99 1018.4
20260903104752 71 279 0.0 0.0 0.00 0.00 0.00 99 1018.2
20260903104247 71 279 0.0 0.0 0.00 0.00 0.00 99 1018.3
20260903103743 71 279 0.0 0.0 0.00 0.00 0.00 99 1018.1
20260903103239 71 279 0.0 0.0 0.00 0.00 0.00 99 1018.2
20260903102735 71 279 0.0 0.0 0.00 0.00 0.00 99 1018.3
20260903102235 71 279 0.0 0.0 0.00 0.00 0.00 99 1018.2
20260903101733 71 245 0.0 0.0 0.00 0.00 0.00 99 1018.1
20260903101229 71 245 0.0 0.0 0.00 0.00 0.00 99 1018.1
20260903100724 71 245 0.0 0.0 0.00 0.00 0.00 99 1018.4
20260903100224 71 236 0.0 0.0 0.00 0.00 0.00 99 1018.2
20260903095721 71 230 0.0 0.0 0.00 0.00 0.00 99 1018.1
20260903095216 72 239 0.0 0.0 0.00 0.00 0.00 98 1018.0
20260903094711 72 255 0.0 0.0 0.00 0.00 0.00 98 1018.1
20260903094207 72 310 0.0 0.0 0.00 0.00 0.00 98 1018.0
20260903093702 72 278 0.0 0.0 0.00 0.00 0.00 98 1018.1
20260903093157 72 218 0.0 0.0 0.00 0.00 0.00 98 1018.1
20260903092657 72 218 0.0 0.0 0.00 0.00 0.00 98 1018.1
20260903092151 72 218 0.0 0.0 0.00 0.00 0.00 98 1018.1
20260903091650 71 217 0.0 0.0 0.00 0.00 0.00 98 1018.0
20260903091144 71 217 0.0 0.0 0.00 0.00 0.00 98 1018.2
20260903090640 72 217 0.0 0.0 0.00 0.00 0.00 98 1018.0
20260903090139 72 217 0.0 0.0 0.00 0.00 0.00 98 1018.3
20260903085637 72 217 0.0 0.0 0.00 0.00 0.00 98 1018.2
20260903085133 72 217 0.0 0.0 0.00 0.00 0.00 98 1018.3
20260903084630 72 217 0.0 0.0 0.00 0.00 0.00 98 1018.2
20260903084126 72 217 0.0 0.0 0.00 0.00 0.00 97 1018.2
20260903083622 72 217 0.0 0.0 0.00 0.00 0.00 97 1018.0
20260903083121 72 217 0.0 0.0 0.00 0.00 0.00 97 1018.4
20260903082616 72 220 0.0 0.0 0.00 0.00 0.00 97 1018.1
20260903082112 72 220 0.0 0.0 0.00 0.00 0.00 97 1018.0
20260903081607 73 219 0.0 0.0 0.00 0.00 0.00 97 1018.1
20260903081103 73 234 0.0 0.0 0.00 0.00 0.00 97 1018.1
20260903080558 73 325 0.0 0.0 0.00 0.00 0.00 97 1017.9
20260903080055 73 111 0.0 0.0 0.00 0.00 0.00 97 1018.1
20260903075549 73 62 0.0 0.0 0.00 0.00 0.00 97 1017.7
20260903075045 73 231 0.0 0.0 0.00 0.00 0.00 97 1018.0
20260903074544 73 218 0.0 0.0 0.00 0.00 0.00 97 1017.9
20260903074039 73 195 0.0 0.0 0.00 0.00 0.00 97 1017.8
20260903073534 73 166 0.0 0.0 0.00 0.00 0.00 97 1017.7
20260903073030 73 166 0.0 0.0 0.00 0.00 0.00 97 1017.8
20260903072526 73 145 0.0 0.0 0.00 0.00 0.00 97 1017.9
20260903072022 73 243 0.0 0.0 0.00 0.00 0.00 96 1017.7
20260903071518 73 243 0.0 0.0 0.00 0.00 0.00 96 1017.9
20260903071019 73 246 0.0 0.0 0.00 0.00 0.00 96 1017.5
20260903070518 73 248 0.0 0.0 0.00 0.00 0.00 96 1017.8
20260903070015 73 252 0.0 0.0 0.00 0.00 0.00 96 1017.7
20260903065508 73 137 0.0 0.0 0.00 0.00 0.00 96 1017.9
20260903065008 73 137 0.0 0.0 0.00 0.00 0.00 96 1017.9
20260903064502 73 137 0.0 0.0 0.00 0.00 0.00 96 1017.6
20260903063958 73 137 0.0 0.0 0.00 0.00 0.00 95 1017.9
20260903063453 73 137 0.0 0.0 0.00 0.00 0.00 95 1017.8
20260903062948 74 137 0.0 0.0 0.00 0.00 0.00 95 1017.9
20260903062448 74 137 0.0 0.0 0.00 0.00 0.00 95 1018.0
20260903061944 74 137 0.0 0.0 0.00 0.00 0.00 95 1017.9
20260903061438 74 152 0.0 0.0 0.00 0.00 0.00 94 1018.1
20260903060933 74 136 0.0 0.0 0.00 0.00 0.00 94 1018.0
20260903060428 74 227 0.0 0.0 0.00 0.00 0.00 93 1018.0
20260903055927 74 227 0.0 0.0 0.00 0.00 0.00 93 1018.1
20260903055425 74 228 0.0 0.0 0.00 0.00 0.00 93 1018.1
20260903054920 74 228 0.0 0.0 0.00 0.00 0.00 93 1018.1
20260903054420 75 227 0.0 0.0 0.00 0.00 0.00 93 1018.1
20260903053916 75 275 0.0 0.0 0.00 0.00 0.00 93 1018.1
20260903053416 75 276 0.0 0.0 0.00 0.00 0.00 93 1018.1
20260903052912 74 119 0.0 0.0 0.00 0.00 0.00 93 1018.1
20260903052408 75 118 0.0 0.0 0.00 0.00 0.00 93 1018.3
20260903051903 75 108 0.0 0.0 0.00 0.00 0.00 93 1018.1
20260903051359 75 167 0.0 0.0 0.00 0.00 0.00 93 1018.1
20260903050854 75 167 0.0 0.0 0.00 0.00 0.00 93 1018.2
20260903050352 75 167 0.0 0.0 0.00 0.00 0.00 92 1017.9
20260903045847 75 168 0.0 0.0 0.00 0.00 0.00 92 1018.4
20260903045343 75 167 0.0 0.0 0.00 0.00 0.00 92 1018.2
20260903044840 75 158 0.0 0.0 0.00 0.00 0.00 91 1018.2
20260903044340 75 118 0.0 0.0 0.00 0.00 0.00 91 1018.1
20260903043836 75 117 0.0 0.0 0.00 0.00 0.00 91 1018.0
20260903043331 75 120 0.0 0.0 0.00 0.00 0.00 91 1018.2
20260903042830 75 120 0.0 0.0 0.00 0.00 0.00 91 1018.3
20260903042325 76 120 0.0 0.0 0.00 0.00 0.00 90 1018.4
20260903041822 76 83 0.0 0.0 0.00 0.00 0.00 91 1018.2
20260903041318 76 94 0.0 0.0 0.00 0.00 0.00 90 1018.1
20260903040813 76 150 0.0 0.0 0.00 0.00 0.00 90 1018.3
20260903040312 77 159 0.0 0.0 0.00 0.00 0.00 90 1018.2
20260903035808 77 169 0.0 0.0 0.00 0.00 0.00 89 1018.3
20260903035306 77 332 0.0 0.0 0.00 0.00 0.00 88 1018.3
20260903034758 77 333 0.0 0.0 0.00 0.00 0.00 88 1018.0
20260903034253 77 337 0.0 0.0 0.00 0.00 0.00 88 1018.1
20260903033750 77 322 0.0 0.0 0.00 0.00 0.00 88 1018.1
20260903033244 77 290 0.0 0.0 0.00 0.00 0.00 88 1018.1
20260903032738 77 289 0.0 0.0 0.00 0.00 0.00 88 1018.3
20260903032235 77 289 0.0 0.0 0.00 0.00 0.00 88 1018.1
20260903031730 77 289 0.0 0.0 0.00 0.00 0.00 88 1018.2
20260903031229 78 289 0.0 0.0 0.00 0.00 0.00 87 1018.1
20260903030726 78 298 0.0 0.0 0.00 0.00 0.00 87 1017.9
20260903030221 78 321 0.0 0.0 0.00 0.00 0.00 86 1018.1
20260903025716 78 321 0.0 0.0 0.00 0.00 0.00 86 1018.2
20260903025211 78 321 0.0 0.0 0.00 0.00 0.00 85 1018.0
20260903024706 79 333 0.0 0.0 0.00 0.00 0.00 85 1017.9
20260903024205 78 341 0.0 0.0 0.00 0.00 0.00 85 1018.1
20260903023701 79 108 0.0 0.0 0.00 0.00 0.00 85 1017.9
20260903023155 78 69 0.0 0.0 0.00 0.00 0.00 85 1018.2
20260903022649 78 117 0.0 0.0 0.00 0.00 0.00 85 1018.3
20260903022144 79 121 0.0 0.0 0.00 0.00 0.00 85 1018.0
20260903021644 79 124 0.0 0.0 0.00 0.00 0.00 85 1018.0
20260903021138 79 124 0.0 0.0 0.00 0.00 0.00 84 1018.2
20260903020634 79 335 0.0 0.0 0.00 0.00 0.00 83 1018.2
20260903020134 80 335 0.0 0.0 0.00 0.00 0.00 82 1017.9
20260903015629 80 335 0.0 0.0 0.00 0.00 0.00 82 1018.2
20260903015125 80 335 0.0 0.0 0.00 0.00 0.00 82 1018.2
20260903014624 80 335 0.0 0.0 0.00 0.00 0.00 81 1018.0
20260903014124 80 336 0.0 0.0 0.00 0.00 0.00 81 1018.2
20260903013619 80 338 0.0 0.0 0.00 0.00 0.00 81 1018.3
20260903013114 80 337 0.0 0.0 0.00 0.00 0.00 81 1018.1
20260903012613 80 337 0.0 0.0 0.00 0.00 0.00 80 1017.8
20260903012112 81 337 0.0 0.0 0.00 0.00 0.00 80 1017.9
20260903011612 81 337 0.0 0.0 0.00 0.00 0.00 79 1017.9
20260903011111 81 337 0.0 0.0 0.00 0.00 0.00 78 1017.6
20260903010607 82 337 0.0 0.0 0.00 0.00 0.00 78 1017.7
20260903010105 82 343 0.0 0.0 0.00 0.00 0.00 78 1017.7
20260903005600 82 105 0.0 0.0 0.00 0.00 0.00 78 1017.7
20260903005056 82 321 0.0 0.0 0.00 0.00 0.00 77 1017.6
20260903004556 82 321 0.0 0.0 0.00 0.00 0.00 77 1017.7
20260903004051 83 321 0.0 0.0 0.00 0.00 0.00 75 1017.6
20260903003546 83 321 0.0 0.0 0.00 0.00 0.00 76 1017.5
20260903003041 83 321 0.0 0.0 0.00 0.00 0.00 74 1017.6
20260903002537 84 321 0.0 0.0 0.00 0.00 0.00 74 1017.4
20260903002037 84 321 0.0 0.0 0.00 0.00 0.00 74 1017.5
20260903001531 84 321 0.0 0.0 0.00 0.00 0.00 72 1017.4
20260903001031 85 321 0.0 0.0 0.00 0.00 0.00 71 1017.3
20260903000527 86 321 0.0 0.0 0.00 0.00 0.00 70 1017.2
20260903000020 86 322 0.0 0.0 0.00 0.00 0.00 69 1017.3
20260902235514 87 321 0.0 0.0 0.00 0.00 0.00 68 1017.2
20260902235009 87 321 0.0 0.0 0.00 0.00 0.00 66 1017.3
20260902234504 88 36 0.0 0.0 0.00 0.00 0.00 65 1017.4
20260902234003 88 56 0.0 0.0 0.00 0.00 0.00 65 1017.4
20260902233502 89 40 0.0 0.0 0.00 0.00 0.00 64 1017.4
20260902232956 89 299 0.0 0.0 0.00 0.00 0.00 64 1017.2
20260902232450 89 232 0.0 0.0 0.00 0.00 0.00 63 1017.2
20260902231950 90 4 0.0 0.0 0.00 0.00 0.00 62 1017.4
20260902231445 90 345 0.0 0.0 0.00 0.00 0.00 61 1017.3
20260902230940 91 7 0.0 0.0 0.00 0.00 0.00 60 1017.4
20260902230440 91 346 0.0 0.0 0.00 0.00 0.00 60 1017.3
20260902225933 91 339 0.0 0.0 0.00 0.00 0.00 59 1017.4
20260902225429 92 295 0.0 0.0 0.00 0.00 0.00 59 1017.5
20260902224928 92 354 0.0 0.0 0.00 0.00 0.00 58 1017.3
20260902224427 92 337 0.0 0.0 0.00 0.00 0.00 58 1017.4
20260902223924 93 58 0.0 0.0 0.00 0.00 0.00 57 1017.5
20260902223419 94 13 0.0 0.0 0.00 0.00 0.00 57 1017.6
20260902222919 94 315 0.0 0.0 0.00 0.00 0.00 58 1017.6
20260902222417 95 298 0.0 1.0 0.00 0.00 0.00 56 1017.3
20260902221917 95 39 0.0 0.0 0.00 0.00 0.00 56 1017.6
20260902221416 95 16 0.0 0.0 0.00 0.00 0.00 54 1017.5
20260902220911 96 28 0.0 0.0 0.00 0.00 0.00 55 1017.4
20260902220406 96 297 0.0 0.0 0.00 0.00 0.00 54 1017.4
20260902215901 96 260 0.0 0.0 0.00 0.00 0.00 53 1017.4
20260902215356 95 327 0.0 0.0 0.00 0.00 0.00 53 1017.6
20260902214852 95 140 0.0 0.0 0.00 0.00 0.00 54 1017.4
20260902214351 97 55 1.0 2.0 0.00 0.00 0.00 53 1017.6
20260902213846 96 319 0.0 0.0 0.00 0.00 0.00 53 1017.5
20260902213342 97 283 0.0 0.0 0.00 0.00 0.00 52 1017.4
20260902212840 96 307 0.0 0.0 0.00 0.00 0.00 51 1017.6
20260902212337 97 353 0.0 0.0 0.00 0.00 0.00 51 1017.5
20260902211833 97 265 0.0 0.0 0.00 0.00 0.00 49 1017.5
20260902211329 96 302 0.0 0.0 0.00 0.00 0.00 51 1017.6
20260902210824 96 278 0.0 0.0 0.00 0.00 0.00 51 1017.9
20260902210323 96 86 0.0 0.0 0.00 0.00 0.00 51 1017.7
20260902205821 96 120 0.0 0.0 0.00 0.00 0.00 51 1017.8
20260902205316 96 131 0.0 0.0 0.00 0.00 0.00 52 1017.9
20260902204812 96 54 0.0 0.0 0.00 0.00 0.00 50 1017.7
20260902204306 95 348 0.0 0.0 0.00 0.00 0.00 51 1017.6
20260902203802 97 316 0.0 0.0 0.00 0.00 0.00 50 1017.6
20260902203257 97 172 0.0 0.0 0.00 0.00 0.00 51 1017.8
20260902202751 96 197 0.0 0.0 0.00 0.00 0.00 52 1017.9
20260902202248 96 33 0.0 0.0 0.00 0.00 0.00 52 1018.0
20260902201744 97 170 0.0 0.0 0.00 0.00 0.00 53 1018.0
20260902201243 96 224 0.0 0.0 0.00 0.00 0.00 55 1018.1
20260902200738 96 341 0.0 0.0 0.00 0.00 0.00 53 1017.9
20260902200234 96 55 1.0 3.0 0.00 0.00 0.00 53 1018.0
20260902195730 96 95 0.0 0.0 0.00 0.00 0.00 51 1018.2
20260902195229 96 289 0.0 0.0 0.00 0.00 0.00 52 1018.3
20260902194729 95 339 0.0 0.0 0.00 0.00 0.00 52 1018.4
20260902194224 96 296 0.0 0.0 0.00 0.00 0.00 52 1018.3
20260902193719 97 141 0.0 0.0 0.00 0.00 0.00 52 1018.4
20260902193215 96 202 0.0 0.0 0.00 0.00 0.00 51 1018.5
20260902192713 96 238 0.0 0.0 0.00 0.00 0.00 53 1018.7
20260902192212 95 212 0.0 0.0 0.00 0.00 0.00 55 1018.6
20260902191707 94 296 0.0 0.0 0.00 0.00 0.00 55 1018.8
20260902191201 95 119 0.0 0.0 0.00 0.00 0.00 60 1018.7
20260902190657 94 334 0.0 0.0 0.00 0.00 0.00 57 1018.8
20260902190152 94 77 0.0 0.0 0.00 0.00 0.00 57 1018.6
20260902185647 94 200 0.0 0.0 0.00 0.00 0.00 59 1018.7
20260902185144 94 133 0.0 0.0 0.00 0.00 0.00 61 1019.1
20260902184643 92 286 0.0 0.0 0.00 0.00 0.00 59 1019.0
20260902184139 91 300 0.0 0.0 0.00 0.00 0.00 61 1019.0
20260902183635 91 291 0.0 0.0 0.00 0.00 0.00 61 1018.9
20260902183131 91 92 0.0 0.0 0.00 0.00 0.00 61 1019.2
20260902182627 93 17 0.0 0.0 0.00 0.00 0.00 60 1019.1
20260902182123 93 94 0.0 0.0 0.00 0.00 0.00 59 1019.1
20260902181619 93 331 0.0 0.0 0.00 0.00 0.00 59 1019.3
20260902181119 94 127 0.0 0.0 0.00 0.00 0.00 60 1019.3
20260902180618 92 284 0.0 0.0 0.00 0.00 0.00 59 1019.5
20260902180116 92 305 0.0 0.0 0.00 0.00 0.00 59 1019.4
20260902175614 91 282 0.0 0.0 0.00 0.00 0.00 64 1019.3
20260902175110 91 9 0.0 0.0 0.00 0.00 0.00 62 1019.2
20260902174606 93 24 0.0 0.0 0.00 0.00 0.00 61 1019.6
20260902174102 91 16 0.0 0.0 0.00 0.00 0.00 65 1019.6
20260902173602 91 53 0.0 0.0 0.00 0.00 0.00 64 1019.6
20260902173057 92 270 0.0 0.0 0.00 0.00 0.00 63 1019.8
20260902172551 94 287 0.0 0.0 0.00 0.00 0.00 61 1019.9
20260902172045 94 203 0.0 0.0 0.00 0.00 0.00 62 1019.8
20260902171541 93 216 0.0 0.0 0.00 0.00 0.00 60 1020.0
20260902171037 92 217 0.0 0.0 0.00 0.00 0.00 63 1020.3
20260902170532 91 125 0.0 0.0 0.00 0.00 0.00 64 1020.5
20260902170028 93 104 2.0 5.0 0.00 0.00 0.00 61 1020.2
20260902165522 92 195 0.0 0.0 0.00 0.00 0.00 66 1020.3
20260902165022 91 205 0.0 0.0 0.00 0.00 0.00 66 1020.4
20260902164517 91 301 0.0 0.0 0.00 0.00 0.00 65 1020.5
20260902164016 91 196 0.0 0.0 0.00 0.00 0.00 65 1020.6
20260902163512 91 187 0.0 0.0 0.00 0.00 0.00 67 1020.8
20260902163010 91 176 0.0 0.0 0.00 0.00 0.00 64 1020.6
20260902162510 91 159 0.0 0.0 0.00 0.00 0.00 67 1020.5
20260902162005 91 148 0.0 0.0 0.00 0.00 0.00 69 1020.6
20260902161500 91 113 0.0 0.0 0.00 0.00 0.00 66 1020.9
20260902160956 90 208 0.0 0.0 0.00 0.00 0.00 66 1020.7
20260902160451 90 175 0.0 0.0 0.00 0.00 0.00 68 1020.9
20260902155949 89 340 0.0 1.0 0.00 0.00 0.00 67 1020.7
20260902155444 89 26 0.0 0.0 0.00 0.00 0.00 68 1021.1
20260902154938 89 322 0.0 0.0 0.00 0.00 0.00 67 1020.9
20260902154434 90 117 0.0 0.0 0.00 0.00 0.00 67 1020.9
20260902153933 89 237 0.0 0.0 0.00 0.00 0.00 69 1021.0
20260902153432 89 208 0.0 0.0 0.00 0.00 0.00 70 1020.9
20260902152928 89 218 0.0 0.0 0.00 0.00 0.00 70 1021.0
20260902152423 89 224 0.0 0.0 0.00 0.00 0.00 69 1021.1
20260902151919 88 186 0.0 0.0 0.00 0.00 0.00 73 1020.9
20260902151415 87 146 0.0 0.0 0.00 0.00 0.00 73 1020.9
20260902150909 87 107 0.0 0.0 0.00 0.00 0.00 71 1021.1
20260902150405 88 260 0.0 0.0 0.00 0.00 0.00 72 1021.1
20260902145904 87 183 0.0 0.0 0.00 0.00 0.00 74 1021.0
20260902145359 87 80 0.0 0.0 0.00 0.00 0.00 73 1021.0
20260902144855 87 93 0.0 0.0 0.00 0.00 0.00 74 1020.9
20260902144351 87 153 0.0 0.0 0.00 0.00 0.00 74 1020.8
20260902143850 86 131 0.0 0.0 0.00 0.00 0.00 74 1020.9
20260902143345 86 137 0.0 0.0 0.00 0.00 0.00 73 1021.0
20260902142841 86 140 0.0 0.0 0.00 0.00 0.00 75 1021.0
20260902142337 85 164 0.0 0.0 0.00 0.00 0.00 75 1020.8
20260902141832 84 16 0.0 0.0 0.00 0.00 0.00 75 1021.0
20260902141328 84 128 0.0 0.0 0.00 0.00 0.00 75 1020.8
20260902140827 83 73 0.0 0.0 0.00 0.00 0.00 77 1021.2
20260902140323 83 138 0.0 1.0 0.00 0.00 0.00 78 1020.8
20260902135821 82 139 0.0 0.0 0.00 0.00 0.00 79 1020.8
20260902135318 83 164 0.0 0.0 0.00 0.00 0.00 80 1020.9
20260902134816 82 157 0.0 0.0 0.00 0.00 0.00 81 1021.1
20260902134312 82 112 0.0 0.0 0.00 0.00 0.00 81 1021.0
20260902133808 82 117 0.0 1.0 0.00 0.00 0.00 81 1020.9
20260902133307 81 133 0.0 0.0 0.00 0.00 0.00 81 1021.1
20260902132803 82 144 2.0 2.0 0.00 0.00 0.00 82 1020.9
20260902132258 80 147 0.0 0.0 0.00 0.00 0.00 84 1020.9
20260902131753 80 31 0.0 0.0 0.00 0.00 0.00 83 1021.2
20260902131249 80 89 0.0 0.0 0.00 0.00 0.00 84 1021.0
20260902130749 79 74 0.0 0.0 0.00 0.00 0.00 85 1020.8
20260902130245 79 31 0.0 0.0 0.00 0.00 0.00 86 1021.1
20260902125740 79 144 0.0 0.0 0.00 0.00 0.00 86 1020.9
20260902125236 77 158 0.0 0.0 0.00 0.00 0.00 88 1021.1
20260902124732 76 122 0.0 0.0 0.00 0.00 0.00 89 1020.9
20260902124228 76 130 0.0 0.0 0.00 0.00 0.00 90 1021.0
20260902123723 75 124 0.0 0.0 0.00 0.00 0.00 91 1020.9